Retour au catalogue

YAOGAN 9B

ActifMilitaireLEO
NORAD 36414·PAYLOAD·🇨🇳 China

Lancé Mar 5, 2010 depuis Jiuquan Satellite Launch Center

Loading…

Prochains Passages (prochaines 24 heures)

TLE

FraisSource: Space-Track

Époque: Sep 14, 2026, 15:33 UTC

1 36414U 10009B   26257.64857244  .00000012  00000-0  71298-4 0  9994
2 36414  63.3636 126.3260 0546005  21.6130 340.7009 13.45724539811781

Suivez YAOGAN 9B en temps réel avec AllMySat

Download on the App Store